Simultaneous Nadir Overpasses (SNOs) Predictions

Prediction of SNOs between METOP-B and NOAA-19 Satellite Orbit:

Table of predicted SNOs for the next 14.0 days since TLE Epoch: 5/20/2023
Index Date (METOP-B) Time (METOP-B) Lat,Lon (METOP-B) SZA (METOP-B ) Date (NOAA-19) Time (NOAA-19) Lat,Lon (NOAA-19) SZA (NOAA-19 ) Distance(km) Time Diff (sec)
1 05/20/2023 22:24:11 80.93,-121.52 62.60 05/20/2023 22:23:04 80.92,-121.61 62.55 1.88 67
2 05/20/2023 23:14:52 -80.93, 45.77 117.42 05/20/2023 23:14:07 -80.93, 45.87 117.43 1.81 45
3 05/21/2023 00:05:33 80.92,-147.04 62.56 05/21/2023 00:05:03 80.92,-147.06 62.54 0.39 30
4 05/21/2023 00:56:14 -80.92, 20.25 117.46 05/21/2023 00:56:06 -80.93, 20.42 117.44 3.05 8
5 05/21/2023 01:46:54 80.93,-172.20 62.57 05/21/2023 01:47:01 80.93,-172.13 62.57 1.25 7
6 05/21/2023 02:37:35 -80.93, -4.91 117.45 05/21/2023 02:38:05 -80.93, -5.03 117.45 2.14 30
7 05/21/2023 03:28:16 80.92, 162.28 62.53 05/21/2023 03:29:00 80.93, 162.42 62.56 2.59 44
8 05/21/2023 04:18:56 -80.94, -30.07 117.44 05/21/2023 04:20:03 -80.93, -30.10 117.42 1.07 67
9 06/01/2023 08:54:50 -80.91, -99.66 119.46 06/01/2023 08:53:40 -80.92, -99.60 119.47 1.32 70
10 06/01/2023 09:45:30 80.91, 67.76 60.55 06/01/2023 09:44:37 80.92, 67.93 60.55 3.08 53
11 06/01/2023 10:36:11 -80.92,-124.83 119.45 06/01/2023 10:35:38 -80.92,-124.69 119.44 2.46 33
12 06/01/2023 11:26:51 80.92, 42.59 60.57 06/01/2023 11:26:36 80.92, 42.47 60.55 2.08 15
13 06/01/2023 12:17:32 -80.93,-150.00 119.43 06/01/2023 12:17:37 -80.92,-150.15 119.45 2.80 5
14 06/01/2023 13:08:12 80.93, 17.42 60.58 06/01/2023 13:08:34 80.92, 17.39 60.58 0.92 22
15 06/01/2023 13:58:52 -80.94,-175.16 119.42 06/01/2023 13:59:34 -80.93,-175.24 119.42 1.71 42



Historial Predications of SNOs between METOP-B and NOAA-19
